Regional Weather Roundup
Issued by NWS

Home | Current Version | Previous Version | Graphics & Text | Print | Product List | Glossary Off
Versions: 1 2 3 4 5 6 7 8 9 10 11 12 13 14 15 16 17 18 19 20 21 22 23 24 25 26 27 28 29 30 31 32 33 34 35 36 37 38 39 40 41 42 43 44 45 46 47 48 49 50

000
ASUS43 KTOP 040508
RWRKS

WEATHER ROUNDUP FOR KANSAS
NATIONAL WEATHER SERVICE GOODLAND KS
1100 PM CST TUE MAR 03 2015

NOTE:  "FAIR" INDICATES FEW OR NO CLOUDS BELOW 12,000 FEET WITH NO
SIGNIFICANT WEATHER AND/OR OBSTRUCTIONS TO VISIBILITY.

KSZ001>006-013>018-027>032-041>047-040600-
NORTHWEST KANSAS

CITY           SKY/WX    TMP DP  RH WIND       PRES   REMARKS
GOODLAND       CLOUDY    23  12  62 NE14      29.99R WCI  11
HAYS           CLOUDY    27   7  43 NE14      30.08R WCI  15
HILL CITY      CLOUDY    25   6  44 NE15      30.11R WCI  13
RUSSELL        CLOUDY    26   9  48 NE13      30.06R WCI  15
$$

KSZ061>065-074>080-084>089-040600-
SOUTHWEST KANSAS

CITY           SKY/WX    TMP DP  RH WIND       PRES   REMARKS
DODGE CITY     CLOUDY    28  17  63 NE16      30.01R WCI  16
ELKHART          N/A     29  19  66 NE14        N/A  WCI  18
GARDEN CITY    CLOUDY    27  16  63 NE17      29.99S WCI  14
GREAT BEND     CLOUDY    27  12  54 N13       30.07R WCI  16
LIBERAL        CLOUDY    32  21  64 NE16      29.97S WCI  21
PRATT          CLOUDY    32  19  59 NE16G22   30.02S WCI  21
$$

KSZ066>073-081>083-090>101-040600-
SOUTHEAST KANSAS

CITY           SKY/WX    TMP DP  RH WIND       PRES   REMARKS
CHANUTE        CLOUDY    35  27  72 N12       29.99R WCI  27
COFFEYVILLE    CLOUDY    40  33  76 NE15      29.96R WCI  32
HUTCHINSON     CLOUDY    32  18  56 N9        30.04R
MEDICINE LODGE   N/A     33  20  58 N18G28    30.00R WCI  22
NEWTON         MOCLDY    28  18  64 N15       30.03R WCI  17
PARSONS        CLOUDY    39  34  82 N8        29.98R
WICHITA INTL   CLOUDY    34  20  56 N15       30.01R WCI  24
WICHITA JABRA  CLOUDY    32  22  66 N14       30.01R WCI  22
WICHITA MCCONL CLOUDY    33  22  63 N15       30.01R WCI  23
WINFIELD       CLOUDY    36  25  64 N15G24    30.00R WCI  27
$$

KSZ007>012-019>026-033>040-048>060-102>105-040600-
NORTHEAST KANSAS

CITY           SKY/WX    TMP DP  RH WIND       PRES   REMARKS
CONCORDIA      CLEAR     23   8  52 N15G23    30.09R WCI  10
EMPORIA        CLOUDY    31  20  63 N12       30.01R WCI  22
LAWRENCE       CLOUDY    30  21  69 N14       30.03R WCI  19
MANHATTAN      PTCLDY    28  10  46 N13       30.07R WCI  17
MARYSVILLE     CLEAR     23  10  58 N13G21    30.09R WCI  11
OLATHE IND     CLOUDY    30  24  78 N16       30.00R WCI  19
OLATHE EXE     CLOUDY    32  23  69 N12       29.98R WCI  23
SALINA         CLEAR     27   9  46 N15       30.09R WCI  15
TOPEKA BILLARD MOCLDY    30  18  60 N12       30.05R WCI  20
TOPEKA FORBES  MOCLDY    31  19  61 N15G22    30.02R WCI  20
$$



USA.gov is the U.S. government's official web portal to all federal, state and local government web resources and services.